Location: Newark
(39.6867°N, 100.6772°W)
Time: 12:56:54
(UTC+00:00)

Vanguard 1 - Pass Details

Date: 16 October 2019
Orbit: 652 x 3831 km, 34.2° (Epoch: 20 November)

Event Time Altitude Azimuth Distance (km) Brightness Sun altitude
Rises 01:30:20 0° 222° (SW) 4,036 13.8 -17.4°
Reaches altitude 10° 01:32:46 10° 215° (SW) 3,360 13.2 -17.9°
Maximum altitude 01:40:59 43° 146° (SE) 2,545 11.8 -19.5°
Enters shadow 01:47:56 27° 97° (E) 3,877 12.4 -20.8°
Drops below altitude 10° 01:55:27 10° 83° (E) 5,820 - -22.3°
Sets 02:01:14 0° 78° (ENE) 7,281 - -23.4°
